Regional Weather Roundup
Issued by NWS Cleveland, OH

Home | Current Version | Previous Version | Text Only | Print | Product List | Glossary Off
Versions: 1 2 3 4 5 6 7 8 9 10 11 12 13 14 15 16 17 18 19 20 21 22 23 24 25 26 27 28 29 30 31 32 33 34 35 36 37 38 39 40 41 42 43 44 45 46 47 48 49 50

000
ASUS41 KCLE 311200
RWRCLE
OHIO REGIONAL WEATHER ROUNDUP
NATIONAL WEATHER SERVICE WILMINGTON, OH
800 AM EDT THU JUL 31 2014

NOTE: "FAIR" INDICATES FEW OR NO CLOUDS BELOW 12,000 FEET WITH NO
SIGNIFICANT WEATHER AND/OR OBSTRUCTIONS TO VISIBILITY.

OHZ001>008-015>018-024>027-034-035-043-044-311300-
   NORTHWEST OHIO

CITY           SKY/WX    TMP DP  RH WIND       PRES   REMARKS
DEFIANCE       SUNNY     55  53  93 S3        30.06R FOG
FINDLAY        SUNNY     60  57  89 S3        30.06R FOG
TOLEDO EXPRESS SUNNY     55  54  96 CALM      30.05R FOG
TOLEDO METCALF SUNNY     58  54  86 SW7       30.06R
LIMA           FOG       61  60  97 S5        30.07R VSB 1/4
$$

OHZ009>014-019>023-028>033-038-089-311300-
   NORTHEAST OHIO

CITY           SKY/WX    TMP DP  RH WIND       PRES   REMARKS
CLE-HOPKINS    MOSUNNY   60  58  92 SW7       30.06R FOG
CLE-LAKEFRONT  SUNNY     64  58  80 SW9       30.03R
CUY CO. ARPT   MOSUNNY   63  61  94 SW9       30.04R
LORAIN-ELYRIA  SUNNY     63  57  81 W6        30.06R
ASHTABULA      CLOUDY    60  58  92 SW6       30.05R FOG
AKRON-CANTON   PTSUNNY   61  58  90 SW7       30.07R FOG
WOOSTER        NOT AVBL
MANSFIELD      PTSUNNY   62  61  96 SW5       30.08R
YOUNGSTOWN     CLOUDY    61  59  93 SW7       30.06R FOG
$$

OHZ042-051>053-060>062-070>072-077>081-311300-
  SOUTHWEST OHIO

CITY           SKY/WX    TMP DP  RH WIND       PRES   REMARKS
CINC-COVINGTON SUNNY     63  61  93 CALM      30.09S FOG
CINC-LUNKEN    SUNNY     62  61  96 CALM      30.09S
HAMILTON       SUNNY     62  60  93 CALM      30.10R
DAYTON         NOT AVBL
WRIGHT-PAT AFB NOT AVBL
DAYTON GENERAL SUNNY     63  61  93 S3        30.08S FOG
WILMINGTON     SUNNY     61  58  90 S3        30.09S FOG
$$

OHZ036-037-039>041-045>050-054>059-063>069-073>076-082>088-311300-
  CENTRAL AND SOUTHEAST OHIO

CITY           SKY/WX    TMP DP  RH WIND       PRES   REMARKS
COLUMBUS       MOSUNNY   63  59  87 S3        30.08R FOG
OSU AIRPORT    SUNNY     62  59  90 SW6       30.08R FOG
BOLTON FIELD   SUNNY     59  59 100 CALM      30.09S FOG
RICKENBACK AFB NOT AVBL
NEWARK         SUNNY     62  59  90 CALM      30.08S
MARION         MOSUNNY   62  59  90 SW3       30.07S FOG
LANCASTER      SUNNY     62  59  90 CALM      30.09S FOG
ZANESVILLE     SUNNY     61  58  90 CALM      30.09R
NEW PHILLY     PTSUNNY   62  59  90 CALM      30.09R
$$


USA.gov is the U.S. government's official web portal to all federal, state and local government web resources and services.